TimePDT,TemperatureF,Dew PointF,Humidity,Sea Level PressureIn,VisibilityMPH,Wind Direction,Wind SpeedMPH,Gust SpeedMPH,PrecipitationIn,Events,Conditions,WindDirDegrees,DateUTC
12:56 AM,64.0,55.0,73,29.84,10.0,North,-9999.0,-,N/A,,Clear,0,2013-09-14 07:56:00
1:56 AM,63.0,54.0,72,29.84,10.0,SSW,3.5,-,N/A,,Clear,210,2013-09-14 08:56:00
2:56 AM,57.9,52.0,81,29.84,10.0,SE,5.8,-,N/A,,Clear,130,2013-09-14 09:56:00
3:56 AM,59.0,53.1,81,29.83,10.0,South,5.8,-,N/A,,Clear,170,2013-09-14 10:56:00
4:56 AM,57.0,52.0,83,29.84,10.0,Calm,Calm,-,N/A,,Clear,0,2013-09-14 11:56:00
5:56 AM,57.0,52.0,83,29.84,10.0,South,3.5,-,N/A,,Clear,180,2013-09-14 12:56:00
6:56 AM,55.0,51.1,86,29.86,10.0,WNW,4.6,-,N/A,,Clear,290,2013-09-14 13:56:00
7:56 AM,63.0,54.0,72,29.87,10.0,Calm,Calm,-,N/A,,Clear,0,2013-09-14 14:56:00
8:56 AM,69.1,52.0,54,29.88,10.0,Calm,Calm,-,N/A,,Clear,0,2013-09-14 15:56:00
9:01 AM,69.8,51.8,53,29.95,10.0,Calm,Calm,-,N/A,,Scattered Clouds,0,2013-09-14 16:01:00
9:56 AM,71.1,54.0,55,29.88,10.0,Variable,3.5,-,N/A,,Scattered Clouds,0,2013-09-14 16:56:00
10:56 AM,75.9,52.0,43,29.87,10.0,Variable,3.5,-,N/A,,Partly Cloudy,0,2013-09-14 17:56:00
11:56 AM,79.0,50.0,36,29.86,10.0,WNW,5.8,-,N/A,,Partly Cloudy,300,2013-09-14 18:56:00
12:56 PM,82.0,46.9,29,29.84,10.0,NW,5.8,-,N/A,,Partly Cloudy,310,2013-09-14 19:56:00
1:56 PM,86.0,46.9,26,29.82,10.0,Variable,3.5,-,N/A,,Scattered Clouds,0,2013-09-14 20:56:00
2:56 PM,87.1,44.1,22,29.80,10.0,Variable,3.5,-,N/A,,Scattered Clouds,0,2013-09-14 21:56:00
3:56 PM,89.1,39.0,17,29.78,10.0,Calm,Calm,-,N/A,,Partly Cloudy,0,2013-09-14 22:56:00
4:56 PM,89.1,37.9,16,29.77,10.0,NE,6.9,-,N/A,,Scattered Clouds,40,2013-09-14 23:56:00
5:56 PM,88.0,39.0,18,29.77,10.0,NNE,4.6,-,N/A,,Scattered Clouds,20,2013-09-15 00:56:00
6:56 PM,82.9,41.0,23,29.76,10.0,NE,5.8,-,N/A,,Clear,40,2013-09-15 01:56:00
7:56 PM,77.0,42.1,29,29.78,10.0,ENE,5.8,-,N/A,,Clear,70,2013-09-15 02:56:00
8:56 PM,73.9,42.1,32,29.78,10.0,ENE,5.8,-,N/A,,Clear,60,2013-09-15 03:56:00
9:56 PM,73.0,43.0,34,29.79,10.0,South,3.5,-,N/A,,Mostly Cloudy,180,2013-09-15 04:56:00
10:56 PM,70.0,46.0,42,29.80,10.0,South,4.6,-,N/A,,Clear,170,2013-09-15 05:56:00
11:56 PM,70.0,41.0,35,29.80,10.0,SSE,6.9,-,N/A,,Clear,150,2013-09-15 06:56:00